Location: Arbon
(43.0005°N, 0.7472°E)
Time: 09:02:20
(UTC+00:00)

SR - Pass Details

Date: 28 November 2020
Orbit: 575 x 880 km, 66.7° (Epoch: 21 January)

Event Time Altitude Azimuth Distance (km) Brightness Sun altitude
Rises 16:58:44 0° 160° (SSE) 2,783 ? -6.5°
Reaches altitude 10° 17:02:01 10° 132° (SE) 1,917 ? -7.0°
Maximum altitude 17:03:59 13° 104° (ESE) 1,751 ? -7.3°
Drops below altitude 10° 17:06:01 10° 77° (ENE) 1,975 ? -7.7°
Enters shadow 17:06:15 - 74° (ENE) 2,023 ? -7.7°
Sets 17:09:29 0° 50° (NE) 2,947 - -8.3°
